Year,Month,Day,Hour,Minute,Value (Times are PST for insolation in W/m^2)
2016,08,09,00,00,0.00
2016,08,09,00,01,0.00
2016,08,09,00,02,0.00
2016,08,09,00,03,0.00
2016,08,09,00,04,0.00
2016,08,09,00,05,0.00
2016,08,09,00,06,0.00
2016,08,09,00,07,0.00
2016,08,09,00,08,0.00
2016,08,09,00,09,0.00
2016,08,09,00,10,0.00
2016,08,09,00,11,0.00
2016,08,09,00,12,0.00
2016,08,09,00,13,0.00
2016,08,09,00,14,0.00
2016,08,09,00,15,0.00
2016,08,09,00,16,0.00
2016,08,09,00,17,0.00
2016,08,09,00,18,0.00
2016,08,09,00,19,0.00
2016,08,09,00,20,0.00
2016,08,09,00,21,0.00
2016,08,09,00,22,0.00
2016,08,09,00,23,0.00
2016,08,09,00,24,0.00
2016,08,09,00,25,0.00
2016,08,09,00,26,0.00
2016,08,09,00,27,0.00
2016,08,09,00,28,0.00
2016,08,09,00,29,0.00
2016,08,09,00,30,0.00
2016,08,09,00,31,0.00
2016,08,09,00,32,0.00
2016,08,09,00,33,0.00
2016,08,09,00,34,0.00
2016,08,09,00,35,0.00
2016,08,09,00,36,0.00
2016,08,09,00,37,0.00
2016,08,09,00,38,0.00
2016,08,09,00,39,0.00
2016,08,09,00,40,0.00
2016,08,09,00,41,0.00
2016,08,09,00,42,0.00
2016,08,09,00,43,0.00
2016,08,09,00,44,0.00
2016,08,09,00,45,0.00
2016,08,09,00,46,0.00
2016,08,09,00,47,0.00
2016,08,09,00,48,0.00
2016,08,09,00,49,0.00
2016,08,09,00,50,0.00
2016,08,09,00,51,0.00
2016,08,09,00,52,0.00
2016,08,09,00,53,0.00
2016,08,09,00,54,0.00
2016,08,09,00,55,0.00
2016,08,09,00,56,0.00
2016,08,09,00,57,0.00
2016,08,09,00,58,0.00
2016,08,09,00,59,0.00
2016,08,09,01,00,0.00
2016,08,09,01,01,0.00
2016,08,09,01,02,0.00
2016,08,09,01,03,0.00
2016,08,09,01,04,0.00
2016,08,09,01,05,0.00
2016,08,09,01,06,0.00
2016,08,09,01,07,0.00
2016,08,09,01,08,0.00
2016,08,09,01,09,0.00
2016,08,09,01,10,0.00
2016,08,09,01,11,0.00
2016,08,09,01,12,0.00
2016,08,09,01,13,0.00
2016,08,09,01,14,0.00
2016,08,09,01,15,0.00
2016,08,09,01,16,0.00
2016,08,09,01,17,0.00
2016,08,09,01,18,0.00
2016,08,09,01,19,0.00
2016,08,09,01,20,0.00
2016,08,09,01,21,0.00
2016,08,09,01,22,0.00
2016,08,09,01,23,0.00
2016,08,09,01,24,0.00
2016,08,09,01,25,0.00
2016,08,09,01,26,0.00
2016,08,09,01,27,0.00
2016,08,09,01,28,0.00
2016,08,09,01,29,0.00
2016,08,09,01,30,0.00
2016,08,09,01,31,0.00
2016,08,09,01,32,0.00
2016,08,09,01,33,0.00
2016,08,09,01,34,0.00
2016,08,09,01,35,0.00
2016,08,09,01,36,0.00
2016,08,09,01,37,0.00
2016,08,09,01,38,0.00
2016,08,09,01,39,0.00
2016,08,09,01,40,0.00
2016,08,09,01,41,0.00
2016,08,09,01,42,0.00
2016,08,09,01,43,0.00
2016,08,09,01,44,0.00
2016,08,09,01,45,0.00
2016,08,09,01,46,0.00
2016,08,09,01,47,0.00
2016,08,09,01,48,0.00
2016,08,09,01,49,0.00
2016,08,09,01,50,0.00
2016,08,09,01,51,0.00
2016,08,09,01,52,0.00
2016,08,09,01,53,0.00
2016,08,09,01,54,0.00
2016,08,09,01,55,0.00
2016,08,09,01,56,0.00
2016,08,09,01,57,0.00
2016,08,09,01,58,0.00
2016,08,09,01,59,0.00
2016,08,09,02,00,0.00
2016,08,09,02,01,0.00
2016,08,09,02,02,0.00
2016,08,09,02,03,0.00
2016,08,09,02,04,0.00
2016,08,09,02,05,0.00
2016,08,09,02,06,0.00
2016,08,09,02,07,0.00
2016,08,09,02,08,0.00
2016,08,09,02,09,0.00
2016,08,09,02,10,0.00
2016,08,09,02,11,0.00
2016,08,09,02,12,0.00
2016,08,09,02,13,0.00
2016,08,09,02,14,0.00
2016,08,09,02,15,0.00
2016,08,09,02,16,0.00
2016,08,09,02,17,0.00
2016,08,09,02,18,0.00
2016,08,09,02,19,0.00
2016,08,09,02,20,0.00
2016,08,09,02,21,0.00
2016,08,09,02,22,0.00
2016,08,09,02,23,0.00
2016,08,09,02,24,0.00
2016,08,09,02,25,0.00
2016,08,09,02,26,0.00
2016,08,09,02,27,0.00
2016,08,09,02,28,0.00
2016,08,09,02,29,0.00
2016,08,09,02,30,0.00
2016,08,09,02,31,0.00
2016,08,09,02,32,0.00
2016,08,09,02,33,0.00
2016,08,09,02,34,0.00
2016,08,09,02,35,0.00
2016,08,09,02,36,0.00
2016,08,09,02,37,0.00
2016,08,09,02,38,0.00
2016,08,09,02,39,0.00
2016,08,09,02,40,0.00
2016,08,09,02,41,0.00
2016,08,09,02,42,0.00
2016,08,09,02,43,0.00
2016,08,09,02,44,0.00
2016,08,09,02,45,0.00
2016,08,09,02,46,0.00
2016,08,09,02,47,0.00
2016,08,09,02,48,0.00
2016,08,09,02,49,0.00
2016,08,09,02,50,0.00
2016,08,09,02,51,0.00
2016,08,09,02,52,0.00
2016,08,09,02,53,0.00
2016,08,09,02,54,0.00
2016,08,09,02,55,0.00
2016,08,09,02,56,0.00
2016,08,09,02,57,0.00
2016,08,09,02,58,0.00
2016,08,09,02,59,0.00
2016,08,09,03,00,0.00
2016,08,09,03,01,0.00
2016,08,09,03,02,0.00
2016,08,09,03,03,0.00
2016,08,09,03,04,0.00
2016,08,09,03,05,0.00
2016,08,09,03,06,0.00
2016,08,09,03,07,0.00
2016,08,09,03,08,0.00
2016,08,09,03,09,0.00
2016,08,09,03,10,0.00
2016,08,09,03,11,0.00
2016,08,09,03,12,0.00
2016,08,09,03,13,0.00
2016,08,09,03,14,0.00
2016,08,09,03,15,0.00
2016,08,09,03,16,0.00
2016,08,09,03,17,0.00
2016,08,09,03,18,0.00
2016,08,09,03,19,0.00
2016,08,09,03,20,0.00
2016,08,09,03,21,0.00
2016,08,09,03,22,0.00
2016,08,09,03,23,0.00
2016,08,09,03,24,0.00
2016,08,09,03,25,0.00
2016,08,09,03,26,0.00
2016,08,09,03,27,0.00
2016,08,09,03,28,0.00
2016,08,09,03,29,0.00
2016,08,09,03,30,0.00
2016,08,09,03,31,0.00
2016,08,09,03,32,0.00
2016,08,09,03,33,0.00
2016,08,09,03,34,0.00
2016,08,09,03,35,0.00
2016,08,09,03,36,0.00
2016,08,09,03,37,0.00
2016,08,09,03,38,0.00
2016,08,09,03,39,0.00
2016,08,09,03,40,0.00
2016,08,09,03,41,0.00
2016,08,09,03,42,0.00
2016,08,09,03,43,0.00
2016,08,09,03,44,0.00
2016,08,09,03,45,0.00
2016,08,09,03,46,0.00
2016,08,09,03,47,0.00
2016,08,09,03,48,0.00
2016,08,09,03,49,0.00
2016,08,09,03,50,0.00
2016,08,09,03,51,0.00
2016,08,09,03,52,0.00
2016,08,09,03,53,0.00
2016,08,09,03,54,0.00
2016,08,09,03,55,0.00
2016,08,09,03,56,0.00
2016,08,09,03,57,0.00
2016,08,09,03,58,0.00
2016,08,09,03,59,0.00
2016,08,09,04,00,0.00
2016,08,09,04,01,0.00
2016,08,09,04,02,0.00
2016,08,09,04,03,0.00
2016,08,09,04,05,0.00
2016,08,09,04,06,0.00
2016,08,09,04,07,0.00
2016,08,09,04,08,0.00
2016,08,09,04,09,0.00
2016,08,09,04,10,0.00
2016,08,09,04,11,0.00
2016,08,09,04,12,0.00
2016,08,09,04,13,0.00
2016,08,09,04,14,0.00
2016,08,09,04,15,0.00
2016,08,09,04,16,0.00
2016,08,09,04,17,0.00
2016,08,09,04,18,0.00
2016,08,09,04,19,0.00
2016,08,09,04,20,0.00
2016,08,09,04,21,0.00
2016,08,09,04,22,0.00
2016,08,09,04,23,0.00
2016,08,09,04,24,0.00
2016,08,09,04,25,0.00
2016,08,09,04,26,0.00
2016,08,09,04,27,0.00
2016,08,09,04,28,0.00
2016,08,09,04,29,0.00
2016,08,09,04,30,0.00
2016,08,09,04,31,0.00
2016,08,09,04,32,0.00
2016,08,09,04,33,0.00
2016,08,09,04,34,0.00
2016,08,09,04,35,0.00
2016,08,09,04,36,0.00
2016,08,09,04,37,0.00
2016,08,09,04,38,0.00
2016,08,09,04,39,0.00
2016,08,09,04,40,0.00
2016,08,09,04,41,0.00
2016,08,09,04,42,0.00
2016,08,09,04,43,0.00
2016,08,09,04,44,0.00
2016,08,09,04,45,0.00
2016,08,09,04,46,0.00
2016,08,09,04,47,0.00
2016,08,09,04,48,0.00
2016,08,09,04,49,0.00
2016,08,09,04,50,0.00
2016,08,09,04,51,0.00
2016,08,09,04,52,0.00
2016,08,09,04,53,0.00
2016,08,09,04,54,0.00
2016,08,09,04,55,0.00
2016,08,09,04,56,0.00
2016,08,09,04,57,0.00
2016,08,09,04,58,0.00
2016,08,09,04,59,0.00
2016,08,09,05,00,0.00
2016,08,09,05,01,0.00
2016,08,09,05,02,0.00
2016,08,09,05,03,0.00
2016,08,09,05,04,0.00
2016,08,09,05,05,0.00
2016,08,09,05,06,0.00
2016,08,09,05,07,0.00
2016,08,09,05,08,0.00
2016,08,09,05,09,0.00
2016,08,09,05,10,0.00
2016,08,09,05,11,0.00
2016,08,09,05,12,0.00
2016,08,09,05,13,0.00
2016,08,09,05,14,0.00
2016,08,09,05,15,0.00
2016,08,09,05,16,0.00
2016,08,09,05,17,0.00
2016,08,09,05,18,0.00
2016,08,09,05,19,0.00
2016,08,09,05,20,0.00
2016,08,09,05,21,0.00
2016,08,09,05,22,0.00
2016,08,09,05,23,0.00
2016,08,09,05,24,0.00
2016,08,09,05,25,0.00
2016,08,09,05,26,0.00
2016,08,09,05,27,0.00
2016,08,09,05,28,0.00
2016,08,09,05,29,0.00
2016,08,09,05,30,0.00
2016,08,09,05,31,0.00
2016,08,09,05,32,0.00
2016,08,09,05,33,0.00
2016,08,09,05,34,0.00
2016,08,09,05,35,0.00
2016,08,09,05,36,0.00
2016,08,09,05,37,0.00
2016,08,09,05,38,0.00
2016,08,09,05,39,0.00
2016,08,09,05,40,0.00
2016,08,09,05,41,0.00
2016,08,09,05,42,0.00
2016,08,09,05,43,0.00
2016,08,09,05,44,0.00
2016,08,09,05,45,0.00
2016,08,09,05,46,0.00
2016,08,09,05,47,0.00
2016,08,09,05,48,0.00
2016,08,09,05,49,0.00
2016,08,09,05,50,0.00
2016,08,09,05,51,0.00
2016,08,09,05,52,0.00
2016,08,09,05,53,0.00
2016,08,09,05,54,0.00
2016,08,09,05,55,0.00
2016,08,09,05,56,0.00
2016,08,09,05,57,0.00
2016,08,09,05,58,0.00
2016,08,09,05,59,0.00
2016,08,09,06,00,0.00
2016,08,09,06,01,0.00
2016,08,09,06,02,0.90
2016,08,09,06,03,5.00
2016,08,09,06,04,5.00
2016,08,09,06,05,5.00
2016,08,09,06,06,5.00
2016,08,09,06,07,6.20
2016,08,09,06,08,7.00
2016,08,09,06,09,7.00
2016,08,09,06,10,7.00
2016,08,09,06,11,8.90
2016,08,09,06,12,9.10
2016,08,09,06,13,11.00
2016,08,09,06,14,11.00
2016,08,09,06,15,11.40
2016,08,09,06,16,12.00
2016,08,09,06,17,13.00
2016,08,09,06,18,14.00
2016,08,09,06,19,15.40
2016,08,09,06,20,16.00
2016,08,09,06,21,17.70
2016,08,09,06,22,18.00
2016,08,09,06,23,19.00
2016,08,09,06,24,19.30
2016,08,09,06,25,21.00
2016,08,09,06,26,21.70
2016,08,09,06,27,23.00
2016,08,09,06,28,24.00
2016,08,09,06,29,25.00
2016,08,09,06,30,25.70
2016,08,09,06,31,26.00
2016,08,09,06,32,27.70
2016,08,09,06,33,28.00
2016,08,09,06,34,28.20
2016,08,09,06,35,30.00
2016,08,09,06,36,30.50
2016,08,09,06,37,32.00
2016,08,09,06,38,32.00
2016,08,09,06,39,32.50
2016,08,09,06,40,33.00
2016,08,09,06,41,33.00
2016,08,09,06,42,34.60
2016,08,09,06,43,35.00
2016,08,09,06,44,35.10
2016,08,09,06,45,37.00
2016,08,09,06,46,37.30
2016,08,09,06,47,39.00
2016,08,09,06,48,39.00
2016,08,09,06,49,39.00
2016,08,09,06,50,39.00
2016,08,09,06,51,39.00
2016,08,09,06,52,39.70
2016,08,09,06,53,40.00
2016,08,09,06,54,40.00
2016,08,09,06,55,40.00
2016,08,09,06,56,40.20
2016,08,09,06,57,42.00
2016,08,09,06,58,42.00
2016,08,09,06,59,42.00
2016,08,09,07,00,42.90
2016,08,09,07,01,44.00
2016,08,09,07,02,44.00
2016,08,09,07,03,45.30
2016,08,09,07,04,46.00
2016,08,09,07,05,46.00
2016,08,09,07,06,46.90
2016,08,09,07,07,47.00
2016,08,09,07,08,47.30
2016,08,09,07,09,49.00
2016,08,09,07,10,49.70
2016,08,09,07,11,51.00
2016,08,09,07,12,52.00
2016,08,09,07,13,53.00
2016,08,09,07,14,53.00
2016,08,09,07,15,53.70
2016,08,09,07,16,54.00
2016,08,09,07,17,55.90
2016,08,09,07,18,58.00
2016,08,09,07,19,58.40
2016,08,09,07,20,60.00
2016,08,09,07,21,60.70
2016,08,09,07,22,62.40
2016,08,09,07,23,63.00
2016,08,09,07,24,64.20
2016,08,09,07,25,66.30
2016,08,09,07,26,68.50
2016,08,09,07,27,69.90
2016,08,09,07,28,70.00
2016,08,09,07,29,72.10
2016,08,09,07,30,74.40
2016,08,09,07,31,76.00
2016,08,09,07,32,76.30
2016,08,09,07,33,77.80
2016,08,09,07,34,80.00
2016,08,09,07,35,81.00
2016,08,09,07,36,82.30
2016,08,09,07,37,83.70
2016,08,09,07,38,85.70
2016,08,09,07,39,86.00
2016,08,09,07,40,91.70
2016,08,09,07,41,98.30
2016,08,09,07,42,104.80
2016,08,09,07,43,103.30
2016,08,09,07,44,98.30
2016,08,09,07,45,102.10
2016,08,09,07,46,109.30
2016,08,09,07,47,125.70
2016,08,09,07,48,157.70
2016,08,09,07,49,188.00
2016,08,09,07,50,205.90
2016,08,09,07,51,212.90
2016,08,09,07,52,210.30
2016,08,09,07,53,206.70
2016,08,09,07,54,207.70
2016,08,09,07,55,213.20
2016,08,09,07,56,212.40
2016,08,09,07,57,200.70
2016,08,09,07,58,187.00
2016,08,09,07,59,183.00
2016,08,09,08,00,190.70
2016,08,09,08,01,198.50
2016,08,09,08,02,209.40
2016,08,09,08,03,213.80
2016,08,09,08,04,212.50
2016,08,09,08,05,210.30
2016,08,09,08,06,201.40
2016,08,09,08,07,186.30
2016,08,09,08,08,181.00
2016,08,09,08,09,175.00
2016,08,09,08,10,181.60
2016,08,09,08,11,191.80
2016,08,09,08,12,198.60
2016,08,09,08,13,199.20
2016,08,09,08,14,203.30
2016,08,09,08,15,210.00
2016,08,09,08,16,207.70
2016,08,09,08,17,212.70
2016,08,09,08,18,222.30
2016,08,09,08,19,228.20
2016,08,09,08,20,223.00
2016,08,09,08,21,211.90
2016,08,09,08,22,209.00
2016,08,09,08,23,219.20
2016,08,09,08,24,241.50
2016,08,09,08,25,247.70
2016,08,09,08,26,252.00
2016,08,09,08,27,274.30
2016,08,09,08,28,285.00
2016,08,09,08,29,289.80
2016,08,09,08,30,300.00
2016,08,09,08,31,308.70
2016,08,09,08,32,305.80
2016,08,09,08,33,307.30
2016,08,09,08,34,310.70
2016,08,09,08,35,294.30
2016,08,09,08,36,286.70
2016,08,09,08,37,298.40
2016,08,09,08,38,314.70
2016,08,09,08,39,326.90
2016,08,09,08,40,335.00
2016,08,09,08,41,336.00
2016,08,09,08,42,331.30
2016,08,09,08,43,334.20
2016,08,09,08,44,328.70
2016,08,09,08,45,296.40
2016,08,09,08,46,310.00
2016,08,09,08,47,361.30
2016,08,09,08,48,368.20
2016,08,09,08,49,360.00
2016,08,09,08,50,345.10
2016,08,09,08,51,346.80
2016,08,09,08,52,355.40
2016,08,09,08,53,363.00
2016,08,09,08,54,385.30
2016,08,09,08,55,392.00
2016,08,09,08,56,383.70
2016,08,09,08,57,397.30
2016,08,09,08,58,401.40
2016,08,09,08,59,403.80
2016,08,09,09,00,402.00
2016,08,09,09,01,402.60
2016,08,09,09,02,416.00
2016,08,09,09,03,415.80
2016,08,09,09,04,415.00
2016,08,09,09,05,422.40
2016,08,09,09,06,416.50
2016,08,09,09,07,411.30
2016,08,09,09,08,399.10
2016,08,09,09,09,329.50
2016,08,09,09,10,306.00
2016,08,09,09,11,353.70
2016,08,09,09,12,381.20
2016,08,09,09,13,398.00
2016,08,09,09,14,413.60
2016,08,09,09,15,424.30
2016,08,09,09,16,424.80
2016,08,09,09,17,415.10
2016,08,09,09,18,421.30
2016,08,09,09,19,444.80
2016,08,09,09,20,433.90
2016,08,09,09,21,394.50
2016,08,09,09,22,411.70
2016,08,09,09,23,436.50
2016,08,09,09,24,420.80
2016,08,09,09,25,403.70
2016,08,09,09,26,394.70
2016,08,09,09,27,394.00
2016,08,09,09,28,388.30
2016,08,09,09,29,365.70
2016,08,09,09,30,333.90
2016,08,09,09,31,298.40
2016,08,09,09,32,234.80
2016,08,09,09,33,230.00
2016,08,09,09,34,310.20
2016,08,09,09,35,337.30
2016,08,09,09,36,352.10
2016,08,09,09,37,385.40
2016,08,09,09,38,377.50
2016,08,09,09,39,356.20
2016,08,09,09,40,342.30
2016,08,09,09,41,289.00
2016,08,09,09,42,317.70
2016,08,09,09,43,494.70
2016,08,09,09,44,501.40
2016,08,09,09,45,518.00
2016,08,09,09,46,533.30
2016,08,09,09,47,538.80
2016,08,09,09,48,538.00
2016,08,09,09,49,544.70
2016,08,09,09,50,552.70
2016,08,09,09,51,556.70
2016,08,09,09,52,561.20
2016,08,09,09,53,564.70
2016,08,09,09,54,568.50
2016,08,09,09,55,572.20
2016,08,09,09,56,577.40
2016,08,09,09,57,577.50
2016,08,09,09,58,577.00
2016,08,09,09,59,574.50
2016,08,09,10,00,566.30
2016,08,09,10,01,574.60
2016,08,09,10,02,575.20
2016,08,09,10,03,566.80
2016,08,09,10,04,549.60
2016,08,09,10,05,530.90
2016,08,09,10,06,504.30
2016,08,09,10,07,475.60
2016,08,09,10,08,444.60
2016,08,09,10,09,411.20
2016,08,09,10,10,376.30
2016,08,09,10,11,340.80
2016,08,09,10,12,307.60
2016,08,09,10,13,276.10
2016,08,09,10,14,249.60
2016,08,09,10,15,229.00
2016,08,09,10,16,212.40
2016,08,09,10,17,199.00
2016,08,09,10,18,189.70
2016,08,09,10,19,181.40
2016,08,09,10,20,174.40
2016,08,09,10,21,168.70
2016,08,09,10,22,165.50
2016,08,09,10,23,162.40
2016,08,09,10,24,160.10
2016,08,09,10,25,157.90
2016,08,09,10,26,155.80
2016,08,09,10,27,155.00
2016,08,09,10,28,154.30
2016,08,09,10,29,153.00
2016,08,09,10,30,152.00
2016,08,09,10,31,149.80
2016,08,09,10,32,149.00
2016,08,09,10,33,149.00
2016,08,09,10,34,148.20
2016,08,09,10,35,148.00
2016,08,09,10,36,149.00
2016,08,09,10,37,149.40
2016,08,09,10,38,151.50
2016,08,09,10,39,153.60
2016,08,09,10,40,155.00
2016,08,09,10,41,155.50
2016,08,09,10,42,156.00
2016,08,09,10,43,156.00
2016,08,09,10,44,159.00
2016,08,09,10,45,164.20
2016,08,09,10,46,174.80
2016,08,09,10,47,182.10
2016,08,09,10,48,202.60
2016,08,09,10,49,230.10
2016,08,09,10,50,260.00
2016,08,09,10,51,285.00
2016,08,09,10,52,323.70
2016,08,09,10,53,377.80
2016,08,09,10,54,432.00
2016,08,09,10,55,471.20
2016,08,09,10,56,475.90
2016,08,09,10,57,492.60
2016,08,09,10,58,568.60
2016,08,09,10,59,606.20
2016,08,09,11,00,632.40
2016,08,09,11,01,625.30
2016,08,09,11,02,554.90
2016,08,09,11,03,463.00
2016,08,09,11,04,423.80
2016,08,09,11,05,457.00
2016,08,09,11,06,399.70
2016,08,09,11,07,404.70
2016,08,09,11,08,375.70
2016,08,09,11,09,404.70
2016,08,09,11,10,477.40
2016,08,09,11,11,505.20
2016,08,09,11,12,509.40
2016,08,09,11,13,502.20
2016,08,09,11,14,531.40
2016,08,09,11,15,598.20
2016,08,09,11,16,628.00
2016,08,09,11,17,540.70
2016,08,09,11,18,544.70
2016,08,09,11,19,587.80
2016,08,09,11,20,622.90
2016,08,09,11,21,677.40
2016,08,09,11,22,675.80
2016,08,09,11,23,652.10
2016,08,09,11,24,634.70
2016,08,09,11,25,670.30
2016,08,09,11,26,705.80
2016,08,09,11,27,682.80
2016,08,09,11,28,673.00
2016,08,09,11,29,684.40
2016,08,09,11,30,684.10
2016,08,09,11,31,672.30
2016,08,09,11,32,689.70
2016,08,09,11,33,685.50
2016,08,09,11,34,654.30
2016,08,09,11,35,645.60
2016,08,09,11,36,626.30
2016,08,09,11,37,543.40
2016,08,09,11,38,498.70
2016,08,09,11,39,472.70
2016,08,09,11,40,534.40
2016,08,09,11,41,581.50
2016,08,09,11,42,590.10
2016,08,09,11,43,633.10
2016,08,09,11,44,670.00
2016,08,09,11,45,688.00
2016,08,09,11,46,632.90
2016,08,09,11,47,608.00
2016,08,09,11,48,716.30
2016,08,09,11,49,777.70
2016,08,09,11,50,729.40
2016,08,09,11,51,720.30
2016,08,09,11,52,705.00
2016,08,09,11,53,664.10
2016,08,09,11,54,735.50
2016,08,09,11,55,768.30
2016,08,09,11,56,728.20
2016,08,09,11,57,720.70
2016,08,09,11,58,766.30
2016,08,09,11,59,790.00
2016,08,09,12,00,766.60
2016,08,09,12,01,751.00
2016,08,09,12,02,806.40
2016,08,09,12,03,803.90
2016,08,09,12,04,770.00
2016,08,09,12,05,790.60
2016,08,09,12,06,804.70
2016,08,09,12,07,827.30
2016,08,09,12,08,842.90
2016,08,09,12,09,824.40
2016,08,09,12,10,805.00
2016,08,09,12,11,786.30
2016,08,09,12,12,763.10
2016,08,09,12,13,724.80
2016,08,09,12,14,731.80
2016,08,09,12,15,741.40
2016,08,09,12,16,839.50
2016,08,09,12,17,812.20
2016,08,09,12,18,843.30
2016,08,09,12,19,836.30
2016,08,09,12,20,857.60
2016,08,09,12,21,871.40
2016,08,09,12,22,883.80
2016,08,09,12,23,896.00
2016,08,09,12,24,896.00
2016,08,09,12,25,896.00
2016,08,09,12,26,1045.80
2016,08,09,12,27,1016.40
2016,08,09,12,28,1007.00
2016,08,09,12,29,975.00
2016,08,09,12,30,901.60
2016,08,09,12,31,919.80
2016,08,09,12,32,954.00
2016,08,09,12,33,987.30
2016,08,09,12,34,951.40
2016,08,09,12,35,933.00
2016,08,09,12,36,757.00
2016,08,09,12,37,697.50
2016,08,09,12,38,741.00
2016,08,09,12,39,666.00
2016,08,09,12,40,718.30
2016,08,09,12,41,807.90
2016,08,09,12,42,797.60
2016,08,09,12,43,810.00
2016,08,09,12,44,656.40
2016,08,09,12,45,579.30
2016,08,09,12,46,615.00
2016,08,09,12,47,622.00
2016,08,09,12,48,562.50
2016,08,09,12,49,495.30
2016,08,09,12,50,528.60
2016,08,09,12,51,531.40
2016,08,09,12,52,514.50
2016,08,09,12,53,487.30
2016,08,09,12,54,479.10
2016,08,09,12,55,474.30
2016,08,09,12,56,454.80
2016,08,09,12,57,435.00
2016,08,09,12,58,415.10
2016,08,09,12,59,397.00
2016,08,09,13,00,377.90
2016,08,09,13,01,363.60
2016,08,09,13,02,350.90
2016,08,09,13,03,336.90
2016,08,09,13,04,326.10
2016,08,09,13,05,318.10
2016,08,09,13,06,309.30
2016,08,09,13,07,301.10
2016,08,09,13,08,293.30
2016,08,09,13,09,280.40
2016,08,09,13,10,271.00
2016,08,09,13,11,263.10
2016,08,09,13,12,257.80
2016,08,09,13,13,255.80
2016,08,09,13,14,251.90
2016,08,09,13,15,248.10
2016,08,09,13,16,244.90
2016,08,09,13,17,243.40
2016,08,09,13,18,243.00
2016,08,09,13,19,243.00
2016,08,09,13,20,243.00
2016,08,09,13,21,244.00
2016,08,09,13,22,247.00
2016,08,09,13,23,254.10
2016,08,09,13,24,259.30
2016,08,09,13,25,263.20
2016,08,09,13,26,265.00
2016,08,09,13,27,264.40
2016,08,09,13,28,262.70
2016,08,09,13,29,260.50
2016,08,09,13,30,257.60
2016,08,09,13,31,253.30
2016,08,09,13,32,247.60
2016,08,09,13,33,242.50
2016,08,09,13,34,238.30
2016,08,09,13,35,234.20
2016,08,09,13,36,229.60
2016,08,09,13,37,228.00
2016,08,09,13,38,227.00
2016,08,09,13,39,227.00
2016,08,09,13,40,228.40
2016,08,09,13,41,229.80
2016,08,09,13,42,231.80
2016,08,09,13,43,230.00
2016,08,09,13,44,228.40
2016,08,09,13,45,224.60
2016,08,09,13,46,222.10
2016,08,09,13,47,219.20
2016,08,09,13,48,219.40
2016,08,09,13,49,223.20
2016,08,09,13,50,227.50
2016,08,09,13,51,231.20
2016,08,09,13,52,236.10
2016,08,09,13,53,243.20
2016,08,09,13,54,248.00
2016,08,09,13,55,247.40
2016,08,09,13,56,243.30
2016,08,09,13,57,239.70
2016,08,09,13,58,235.80
2016,08,09,13,59,232.10
2016,08,09,14,00,229.40
2016,08,09,14,01,229.00
2016,08,09,14,02,229.00
2016,08,09,14,03,229.80
2016,08,09,14,04,230.00
2016,08,09,14,05,231.90
2016,08,09,14,06,232.00
2016,08,09,14,07,232.00
2016,08,09,14,08,232.70
2016,08,09,14,09,233.20
2016,08,09,14,10,232.00
2016,08,09,14,11,234.20
2016,08,09,14,12,239.30
2016,08,09,14,13,246.20
2016,08,09,14,14,257.80
2016,08,09,14,15,272.40
2016,08,09,14,16,290.40
2016,08,09,14,17,306.10
2016,08,09,14,18,321.60
2016,08,09,14,19,338.70
2016,08,09,14,20,355.70
2016,08,09,14,21,368.30
2016,08,09,14,22,376.90
2016,08,09,14,23,380.00
2016,08,09,14,24,378.50
2016,08,09,14,25,374.70
2016,08,09,14,26,371.30
2016,08,09,14,27,373.50
2016,08,09,14,28,383.20
2016,08,09,14,29,398.70
2016,08,09,14,30,410.10
2016,08,09,14,31,411.30
2016,08,09,14,32,400.20
2016,08,09,14,33,373.40
2016,08,09,14,34,345.00
2016,08,09,14,35,332.30
2016,08,09,14,36,330.00
2016,08,09,14,37,338.00
2016,08,09,14,38,344.30
2016,08,09,14,39,337.90
2016,08,09,14,40,330.90
2016,08,09,14,41,325.80
2016,08,09,14,42,322.60
2016,08,09,14,43,321.00
2016,08,09,14,44,318.90
2016,08,09,14,45,318.00
2016,08,09,14,46,319.50
2016,08,09,14,47,320.00
2016,08,09,14,48,321.80
2016,08,09,14,49,323.10
2016,08,09,14,50,324.60
2016,08,09,14,51,320.00
2016,08,09,14,52,311.50
2016,08,09,14,53,307.20
2016,08,09,14,54,307.40
2016,08,09,14,55,311.20
2016,08,09,14,56,316.30
2016,08,09,14,57,321.70
2016,08,09,14,58,320.60
2016,08,09,14,59,315.60
2016,08,09,15,00,305.90
2016,08,09,15,01,293.70
2016,08,09,15,02,281.40
2016,08,09,15,03,273.30
2016,08,09,15,04,265.10
2016,08,09,15,05,260.20
2016,08,09,15,06,255.20
2016,08,09,15,07,249.90
2016,08,09,15,08,243.10
2016,08,09,15,09,235.60
2016,08,09,15,10,227.80
2016,08,09,15,11,220.00
2016,08,09,15,12,212.30
2016,08,09,15,13,205.90
2016,08,09,15,14,201.10
2016,08,09,15,15,196.80
2016,08,09,15,16,191.60
2016,08,09,15,17,187.80
2016,08,09,15,18,185.40
2016,08,09,15,19,182.00
2016,08,09,15,20,178.60
2016,08,09,15,21,174.40
2016,08,09,15,22,170.80
2016,08,09,15,23,166.30
2016,08,09,15,24,160.70
2016,08,09,15,25,155.10
2016,08,09,15,26,151.00
2016,08,09,15,27,146.10
2016,08,09,15,28,142.30
2016,08,09,15,29,139.80
2016,08,09,15,30,137.60
2016,08,09,15,31,137.00
2016,08,09,15,32,137.00
2016,08,09,15,33,135.10
2016,08,09,15,34,136.80
2016,08,09,15,35,135.40
2016,08,09,15,36,137.00
2016,08,09,15,37,136.30
2016,08,09,15,38,134.60
2016,08,09,15,39,131.80
2016,08,09,15,40,126.90
2016,08,09,15,41,121.50
2016,08,09,15,42,115.30
2016,08,09,15,43,107.80
2016,08,09,15,44,101.70
2016,08,09,15,45,94.00
2016,08,09,15,46,87.10
2016,08,09,15,47,84.00
2016,08,09,15,48,84.00
2016,08,09,15,49,85.00
2016,08,09,15,50,88.80
2016,08,09,15,51,95.70
2016,08,09,15,52,104.70
2016,08,09,15,53,117.60
2016,08,09,15,54,132.40
2016,08,09,15,55,150.00
2016,08,09,15,56,165.20
2016,08,09,15,57,181.10
2016,08,09,15,58,195.60
2016,08,09,15,59,208.90
2016,08,09,16,00,222.70
2016,08,09,16,01,238.90
2016,08,09,16,02,254.80
2016,08,09,16,03,271.90
2016,08,09,16,04,290.70
2016,08,09,16,05,302.90
2016,08,09,16,06,311.60
2016,08,09,16,07,323.20
2016,08,09,16,08,332.40
2016,08,09,16,09,346.60
2016,08,09,16,10,358.00
2016,08,09,16,11,355.00
2016,08,09,16,12,346.10
2016,08,09,16,13,338.40
2016,08,09,16,14,329.90
2016,08,09,16,15,314.00
2016,08,09,16,16,308.30
2016,08,09,16,17,316.10
2016,08,09,16,18,337.70
2016,08,09,16,19,363.20
2016,08,09,16,20,381.00
2016,08,09,16,21,375.40
2016,08,09,16,22,345.00
2016,08,09,16,23,317.60
2016,08,09,16,24,290.30
2016,08,09,16,25,265.40
2016,08,09,16,26,247.00
2016,08,09,16,27,235.10
2016,08,09,16,28,227.00
2016,08,09,16,29,220.60
2016,08,09,16,30,217.60
2016,08,09,16,31,215.10
2016,08,09,16,32,211.50
2016,08,09,16,33,206.80
2016,08,09,16,34,200.40
2016,08,09,16,35,192.60
2016,08,09,16,36,185.10
2016,08,09,16,37,177.60
2016,08,09,16,38,171.70
2016,08,09,16,39,165.10
2016,08,09,16,40,163.00
2016,08,09,16,41,163.00
2016,08,09,16,42,163.00
2016,08,09,16,43,163.80
2016,08,09,16,44,164.10
2016,08,09,16,45,162.50
2016,08,09,16,46,160.70
2016,08,09,16,47,157.00
2016,08,09,16,48,153.60
2016,08,09,16,49,151.20
2016,08,09,16,50,149.00
2016,08,09,16,51,148.00
2016,08,09,16,52,147.60
2016,08,09,16,53,145.40
2016,08,09,16,54,143.30
2016,08,09,16,55,141.60
2016,08,09,16,56,138.90
2016,08,09,16,57,135.10
2016,08,09,16,58,129.80
2016,08,09,16,59,125.70
2016,08,09,17,00,120.60
2016,08,09,17,01,116.00
2016,08,09,17,02,110.80
2016,08,09,17,03,108.10
2016,08,09,17,04,104.70
2016,08,09,17,05,103.30
2016,08,09,17,06,100.10
2016,08,09,17,07,98.00
2016,08,09,17,08,98.00
2016,08,09,17,09,100.80
2016,08,09,17,10,103.60
2016,08,09,17,11,104.90